Weather History for Denver, CO

Change the Weather History Date:

Sunday, June 9, 2013

  Actual Average (KDEN) Record (KDEN)
Temperature  
Mean Temperature 68 °F 65 °F  
Max Temperature 84 °F 80 °F 95 °F (2002)
Min Temperature 51 °F 51 °F 37 °F (1889)
Degree Days  
Heating Degree Days 0 3  
Month to date heating degree days 32  
Since 1 June heating degree days 32  
Since 1 July heating degree days 6028  
Cooling Degree Days 2 3  
Month to date cooling degree days 23  
Year to date cooling degree days 45  
Since 1 June cooling degree days 23  
Growing Degree Days 18 (Base 50)    
Moisture  
Dew Point 39 °F    
Average Humidity 48    
Maximum Humidity 67    
Minimum Humidity 14    
Precipitation  
Precipitation 0.00 in 0.07 in 2.18 in (1923)
Month to date precipitation 0.67  
Year to date precipitation 6.20  
Snow  
Snow 0.00 in - - ()
Month to date snowfall  
Since 1 June snowfall  
Since 1 July snowfall  
Snow Depth -    
Sea Level Pressure  
Sea Level Pressure 30.07 in    
Wind  
Wind Speed 7 mph (South)    
Max Wind Speed 18 mph    
Max Gust Speed 25 mph    
Visibility 10 miles    
Events      
T = Trace of Precipitation, MM = Missing Value Source: NWS Daily Summary

Daily Weather History Graph

Daily Weather History Graph

Search for Another Location

Airport:

Trip Planner

Search our weather history database for the weather conditions in past years. The results will help you decide how hot, cold, wet, or windy it might be!

Date:

Astronomy

Jun. 09, 2013 Rise Set
Actual Time 5:29 AM MDT 8:25 PM MDT
Civil Twilight 4:57 AM MDT 8:57 PM MDT
Nautical Twilight 4:16 AM MDT 9:39 PM MDT
Astronomical Twilight 3:28 AM MDT 10:26 PM MDT
Moon 6:28 AM MDT (6/9) 9:14 PM MDT (6/9)
Length of Visible Light 16h 00m
Length of Day
14h 55m
New Moon, 1% of the Moon is Illuminated
Jun 9
New Moon
Jun 16
First Quarter
Jun 23
Full
Jun 29
Last Quarter
Jul 8
New

Hourly Weather History & Observations

Time (MDT) Temp. Dew Point Humidity Pressure Visibility Wind Dir Wind Speed Gust Speed Precip Events Conditions
12:18 AM 53.6 °F 41.0 °F 62% 30.10 in 10.0 mi South 5.8 mph - N/A   Clear
12:38 AM 53.6 °F 41.0 °F 62% 30.09 in 10.0 mi South 5.8 mph - N/A   Clear
12:58 AM 53.6 °F 41.0 °F 62% 30.09 in 10.0 mi South 5.8 mph - N/A   Clear
1:18 AM 53.6 °F 41.0 °F 62% 30.09 in 10.0 mi South 6.9 mph - N/A   Clear
1:38 AM 55.4 °F 41.0 °F 58% 30.09 in 10.0 mi South 8.1 mph - N/A   Clear
1:57 AM 53.6 °F 41.0 °F 62% 30.09 in 10.0 mi South 5.8 mph - N/A   Clear
2:17 AM 53.6 °F 41.0 °F 62% 30.09 in 10.0 mi South 6.9 mph - N/A   Clear
2:38 AM 53.6 °F 41.0 °F 62% 30.08 in 10.0 mi South 6.9 mph - N/A   Clear
2:58 AM 53.6 °F 41.0 °F 62% 30.08 in 10.0 mi South 9.2 mph - N/A   Clear
3:18 AM 53.6 °F 41.0 °F 62% 30.08 in 10.0 mi South 9.2 mph - N/A   Clear
3:38 AM 51.8 °F 41.0 °F 67% 30.08 in 10.0 mi South 9.2 mph - N/A   Clear
3:58 AM 51.8 °F 41.0 °F 67% 30.08 in 10.0 mi South 5.8 mph - N/A   Clear
4:18 AM 51.8 °F 41.0 °F 67% 30.08 in 10.0 mi South 6.9 mph - N/A   Clear
4:38 AM 51.8 °F 41.0 °F 67% 30.08 in 10.0 mi South 6.9 mph - N/A   Clear
4:57 AM 51.8 °F 39.2 °F 62% 30.08 in 10.0 mi South 8.1 mph - N/A   Clear
5:18 AM 53.6 °F 39.2 °F 58% 30.07 in 10.0 mi South 8.1 mph - N/A   Clear
5:38 AM 53.6 °F 39.2 °F 58% 30.08 in 10.0 mi South 6.9 mph - N/A   Clear
5:58 AM 53.6 °F 41.0 °F 62% 30.09 in 10.0 mi South 5.8 mph - N/A   Clear
6:18 AM 53.6 °F 41.0 °F 62% 30.09 in 10.0 mi SSW 5.8 mph - N/A   Clear
6:38 AM 53.6 °F 41.0 °F 62% 30.09 in 10.0 mi SSW 5.8 mph - N/A   Clear
6:43 AM 55.4 °F 41.0 °F 58% 30.09 in 10.0 mi SW 4.6 mph - N/A   Clear
7:48 AM 62.6 °F 44.6 °F 52% 30.10 in 50.0 mi West 5.8 mph - N/A   Clear
8:50 AM 68.0 °F 44.6 °F 43% 30.11 in 50.0 mi West 4.6 mph - N/A   Clear
9:48 AM 73.4 °F 42.8 °F 33% 30.10 in 50.0 mi WSW 5.8 mph - N/A   Clear
10:48 AM 80.6 °F 35.6 °F 20% 30.09 in 50.0 mi NW 4.6 mph - N/A   Clear
11:48 AM 82.4 °F 30.2 °F 15% 30.08 in 50.0 mi North 4.6 mph - N/A   Clear
12:53 PM 84.2 °F 30.2 °F 14% 30.06 in 50.0 mi ENE 6.9 mph - N/A   Partly Cloudy
9:17 PM 73.4 °F 37.4 °F 27% 30.01 in 10.0 mi SSE 8.1 mph - N/A   Clear
9:38 PM 69.8 °F 37.4 °F 31% 30.01 in 10.0 mi SSE 8.1 mph - N/A   Clear
9:57 PM 68.0 °F 35.6 °F 30% 30.01 in 10.0 mi SSE 9.2 mph - N/A   Clear
10:17 PM 69.8 °F 33.8 °F 27% 30.02 in 10.0 mi South 11.5 mph - N/A   Clear
10:38 PM 71.6 °F 33.8 °F 25% 30.02 in 10.0 mi South 11.5 mph - N/A   Clear
10:58 PM 73.4 °F 32.0 °F 22% 30.01 in 10.0 mi South 12.7 mph 20.7 mph N/A   Clear
11:18 PM 71.6 °F 32.0 °F 23% 30.01 in 10.0 mi South 12.7 mph - N/A   Clear
11:38 PM 73.4 °F 32.0 °F 22% 30.01 in 10.0 mi South 16.1 mph 21.9 mph N/A   Clear
11:58 PM 73.4 °F 32.0 °F 22% 30.00 in 10.0 mi SSW 18.4 mph 25.3 mph N/A   Clear